Weather History for KNAK - November, 2013

Change the Weather History Date:

Thursday, November 28, 2013

  Actual Average (KBWI) Record (KBWI)
Temperature  
Mean Temperature 32 °F 42 °F  
Max Temperature 37 °F 51 °F 73 °F (1990)
Min Temperature 28 °F 33 °F 15 °F (1951)
Degree Days  
Heating Degree Days 32 23  
Month to date heating degree days 511  
Since 1 July heating degree days 858  
Cooling Degree Days 0 0  
Month to date cooling degree days 0  
Year to date cooling degree days 1163  
Moisture  
Dew Point 16 °F    
Average Humidity 52    
Maximum Humidity 79    
Minimum Humidity 31    
Precipitation  
Precipitation 0.00 in 0.11 in 1.50 in (1948)
Month to date precipitation 3.06  
Year to date precipitation 38.27  
Snow  
Snow 0.00 in 0.00 in 1.70 in (1917)
Month to date snowfall 0.3  
Since 1 July snowfall 0.3  
Snow Depth -    
Sea Level Pressure  
Sea Level Pressure 30.35 in    
Wind  
Wind Speed 8 mph (WNW)    
Max Wind Speed 16 mph    
Max Gust Speed 25 mph    
Visibility 10 miles    
Events      
T = Trace of Precipitation, MM = Missing Value Source: NWS Daily Summary

Daily Weather History Graph

Daily Weather History Graph

Search for Another Location

Airport or City:

Trip Planner

Search our weather history database for the weather conditions in past years. The results will help you decide how hot, cold, wet, or windy it might be!

Date:

Astronomy

Nov. 28, 2013 Rise Set
Actual Time 7:03 AM EST 4:44 PM EST
Civil Twilight 6:33 AM EST 5:14 PM EST
Nautical Twilight 6:00 AM EST 5:47 PM EST
Astronomical Twilight 5:28 AM EST 6:19 PM EST
Moon 2:05 AM EST (11/28) 1:51 PM EST (11/28)
Length of Visible Light 10h 40m
Length of Day
9h 41m
Waning Crescent, 22% of the Moon is Illuminated
Nov 28
Waning Crescent
Dec 2
New
Dec 9
First Quarter
Dec 17
Full
Dec 25
Last Quarter

Hourly Weather History & Observations

Time (EST) Temp. Windchill Dew Point Humidity Pressure Visibility Wind Dir Wind Speed Gust Speed Precip Events Conditions
12:54 AM 30.9 °F 19.8 °F 15.1 °F 52% 30.05 in 10.0 mi WNW 16.1 mph 25.3 mph N/A   Clear
1:54 AM 30.9 °F 23.5 °F 15.1 °F 52% 30.10 in 10.0 mi West 8.1 mph 19.6 mph N/A   Overcast
2:54 AM 30.9 °F 21.7 °F 15.1 °F 52% 30.14 in 10.0 mi WNW 11.5 mph 19.6 mph N/A   Mostly Cloudy
3:54 AM 30.0 °F 21.7 °F 12.9 °F 49% 30.18 in 10.0 mi West 9.2 mph 21.9 mph N/A   Clear
4:54 AM 30.0 °F 23.2 °F 14.0 °F 51% 30.22 in 10.0 mi West 6.9 mph - N/A   Clear
5:54 AM 28.9 °F 21.9 °F 14.0 °F 54% 30.26 in 10.0 mi West 6.9 mph - N/A   Clear
6:54 AM 28.0 °F 20.8 °F 14.0 °F 56% 30.30 in 10.0 mi West 6.9 mph - N/A   Clear
7:54 AM 30.0 °F 23.2 °F 14.0 °F 51% 30.34 in 10.0 mi Variable 6.9 mph - N/A   Clear
8:54 AM 30.9 °F 25.2 °F 14.0 °F 50% 30.36 in 10.0 mi NW 5.8 mph 16.1 mph N/A   Clear
9:54 AM 33.1 °F 24.9 °F 15.1 °F 48% 30.38 in 10.0 mi West 10.4 mph 20.7 mph N/A   Clear
10:54 AM 34.0 °F 25.0 °F 14.0 °F 44% 30.39 in 10.0 mi WNW 12.7 mph 18.4 mph N/A   Clear
11:54 AM 35.1 °F 27.9 °F 15.1 °F 44% 30.38 in 10.0 mi West 9.2 mph 17.3 mph N/A   Clear
12:54 PM 37.0 °F 29.8 °F 16.0 °F 42% 30.38 in 10.0 mi NW 10.4 mph 19.6 mph N/A   Clear
1:54 PM 37.0 °F 30.4 °F 15.1 °F 41% 30.38 in 10.0 mi WNW 9.2 mph - N/A   Clear
2:54 PM 37.9 °F 34.4 °F 14.0 °F 38% 30.38 in 10.0 mi NW 4.6 mph - N/A   Clear
3:54 PM 37.0 °F 33.3 °F 9.0 °F 31% 30.40 in 10.0 mi West 4.6 mph - N/A   Clear
4:54 PM 36.0 °F 33.3 °F 12.0 °F 37% 30.42 in 10.0 mi WNW 3.5 mph - N/A   Clear
5:54 PM 34.0 °F - 12.9 °F 42% 30.45 in 10.0 mi Calm Calm - N/A   Clear
6:54 PM 32.0 °F - 16.0 °F 52% 30.46 in 10.0 mi Calm Calm - N/A   Clear
7:54 PM 32.0 °F - 23.0 °F 69% 30.47 in 10.0 mi Calm Calm - N/A   Clear
8:54 PM 30.9 °F - 25.0 °F 79% 30.48 in 10.0 mi Calm Calm - N/A   Scattered Clouds
9:54 PM 32.0 °F - 25.0 °F 75% 30.49 in 9.0 mi Calm Calm - N/A   Overcast
10:54 PM 33.1 °F - 25.0 °F 72% 30.50 in 10.0 mi Calm Calm - N/A   Overcast
11:54 PM 34.0 °F - 25.0 °F 70% 30.50 in 10.0 mi Calm Calm - N/A   Overcast